METEOR 2-7 DEB

Satellite information

Favourite Embed

Satellite Type and Status

DEBRISIN ORBIT

Key statistics

Satellite METEOR 2-7 DEB at a glance.

Uptime

16270

Days in orbit

Revolutions

≈ 14.4

Per day

Orbit

LEO

Low Earth Orbit

Inclination

81.3

Latest

Satellite identification and parameters

Extended collection of information and parameters for METEOR 2-7 DEB.

Object identification

Identified? True

Debris? True

Object name: METEOR 2-7 DEB

International designator: 1981-043AA

Object number (NORAD): 45515

Object ID (CCSDS): 45515

Country: COMMONWEALTH OF INDEPENDENT STATES (CIS)

Current information (Y/N): Y

RCS size: SMALL

Orbital parameters

Period: 99.969 minutes

Inclination: 81.2534 deg

SMA: 7135.171 km

Apoapsis: 763.379 km

Periapsis: 750.693 km

RAAN: 310.7171 deg

Eccentricy: 0.00088894

Argument of periapsis: 103.1067 deg

Mean anomaly: 70.1142 deg

Mean motion: 14.40443286 rev/day

Mean motion (dot): 0.0000555 rev/day2

B* drag term: 0.0017416806 1/REarth

Two-line elements (TLE)

Creation date: Aug. 27, 2025, 12:18 p.m.

Reference frame: TEME

Reference center: EARTH

Epoch: Aug. 26, 2025, 11:24 p.m. UTC

TLE line 0: 0 METEOR 2-7 DEB

TLE line 1: 1 45515U 81043AA 25238.97555229 .00005550 00000-0 17417-2 0 9997

TLE line 2: 2 45515 81.2534 310.7171 0008889 103.1067 70.1142 14.40443286609967

Live tracking on map

Real-time ground track for satellite METEOR 2-7 DEB.

In-orbit conjunctions

A list of the most updated potential collisions computed for object METEOR 2-7 DEB.

Target Orbit TCA Probability of collision Miss distance Type
CZ-6A DEB LEO 2025-02-02 23:28:51 0.0001018987 437.0 (m) DEBRIS
CZ-6A DEB LEO 2025-01-27 14:30:33 0.0001235699 546.0 (m) DEBRIS
FENGYUN 1C DEB SSO 2024-11-16 10:21:02 0.0003259068 324.0 (m) DEBRIS
FALCONSAT SSO 2024-10-21 05:27:21 0.0001988612 768.0 (m) PAYLOAD
EYESAT A SSO 2024-10-11 00:40:31 0.0001734542 333.0 (m) PAYLOAD

Associated space launch

Navigation satellite providing location information for the Tsiklon-B navigation system

METEOR 2-7 DEB was lifted into orbit during the mission ‘Kosmos-3M | Parus 26’, on board a Kosmos-3M space rocket.

The launch took place on Feb. 12, 1981, 6:21 p.m. from 132/1 (132L).

For more information about the launch, click the button.

Launch to space Kosmos-3M | Parus 26
Kosmos-3M | Parus 26

Agency: N/A

Status: Launch Successful

Launch date: Feb. 12, 1981, 6:21 p.m. UTC

Rocket: Kosmos-3M

Launch pad: 132/1 (132L)

Location: Plesetsk Cosmodrome, Russian Federation

...

Latest news about this satellite

There are no fresh news available about this satellite. Check back as we update our databases every day.


Newsletter sign-up

Weekly statistics, charts and insights to help you stay on top of the space industry.